Weather History for Shreveport, LA

Change the Weather History Date:

Monday, February 18, 2013

  Actual Average Record
Temperature  
Mean Temperature 61 °F 51 °F  
Max Temperature 71 °F 62 °F 87 °F (1986)
Min Temperature 51 °F 40 °F 12 °F (1910)
Degree Days  
Heating Degree Days 4 14  
Month to date heating degree days 231 283  
Since 1 July heating degree days 1469 1755  
Cooling Degree Days 0 0  
Month to date cooling degree days 0 0  
Year to date cooling degree days 8 4  
Growing Degree Days 12 (Base 50)    
Moisture  
Dew Point 51 °F    
Average Humidity 71    
Maximum Humidity 87    
Minimum Humidity 54    
Precipitation  
Precipitation 0.07 in 0.18 in 2.43 in (1988)
Month to date precipitation 2.31 3.09  
Year to date precipitation 7.07 7.29  
Snow  
Snow 0.00 in - - ()
Month to date snowfall 0.0  
Since 1 July snowfall 0.1  
Snow Depth 0.00 in    
Sea Level Pressure  
Sea Level Pressure 29.93 in    
Wind  
Wind Speed 13 mph (South)    
Max Wind Speed 28 mph    
Max Gust Speed 38 mph    
Visibility 10 miles    
Events Rain , Thunderstorm    
T = Trace of Precipitation, MM = Missing Value Source: NWS Daily Summary

Daily Weather History Graph

Daily Weather History Graph

Search for Another Location

Airport:

Trip Planner

Search our weather history database for the weather conditions in past years. The results will help you decide how hot, cold, wet, or windy it might be!

Date:

Astronomy

Feb. 18, 2013 Rise Set
Actual Time 6:54 AM CST 6:04 PM CST
Civil Twilight 6:29 AM CST 6:29 PM CST
Nautical Twilight 6:01 AM CST 6:57 PM CST
Astronomical Twilight 5:32 AM CST 7:26 PM CST
Moon 11:59 AM CST (2/18) 1:26 AM CST (2/18)
Length of Visible Light 11h 59m
Length of Day
11h 09m
First Quarter, 58% of the Moon is Illuminated
Feb 18
First Quarter
Feb 25
Full
Mar 4
Last Quarter
Mar 11
New
Mar 19
First Quarter

Hourly Weather History & Observations

Time (CST) Temp. Dew Point Humidity Pressure Visibility Wind Dir Wind Speed Gust Speed Precip Events Conditions
12:56 AM 53.1 °F 44.1 °F 71% 30.04 in 10.0 mi SSE 11.5 mph - N/A   Mostly Cloudy
1:56 AM 52.0 °F 45.0 °F 77% 30.03 in 10.0 mi South 11.5 mph - N/A   Mostly Cloudy
2:56 AM 52.0 °F 45.0 °F 77% 30.01 in 10.0 mi SE 8.1 mph - N/A   Overcast
3:56 AM 52.0 °F 46.0 °F 80% 29.99 in 10.0 mi SSE 8.1 mph - N/A   Overcast
4:56 AM 51.1 °F 45.0 °F 80% 29.98 in 10.0 mi SE 9.2 mph - N/A   Overcast
5:56 AM 53.1 °F 46.0 °F 77% 29.97 in 10.0 mi SE 9.2 mph - N/A   Overcast
6:56 AM 53.1 °F 46.9 °F 80% 29.97 in 10.0 mi SE 9.2 mph - N/A   Overcast
7:56 AM 54.0 °F 48.0 °F 80% 29.97 in 10.0 mi SSE 9.2 mph - N/A   Overcast
8:56 AM 57.0 °F 48.9 °F 74% 29.97 in 10.0 mi SSE 12.7 mph - N/A   Overcast
9:56 AM 62.1 °F 52.0 °F 70% 29.94 in 10.0 mi South 17.3 mph 31.1 mph N/A   Overcast
10:13 AM 62.6 °F 51.8 °F 68% 29.94 in 10.0 mi South 16.1 mph 23.0 mph N/A   Overcast
10:56 AM 64.9 °F 53.1 °F 65% 29.92 in 10.0 mi South 18.4 mph 32.2 mph N/A   Overcast
11:23 AM 66.2 °F 53.6 °F 64% 29.91 in 10.0 mi South 20.7 mph 38.0 mph N/A   Overcast
11:56 AM 66.9 °F 54.0 °F 63% 29.88 in 10.0 mi South 20.7 mph 29.9 mph N/A   Overcast
12:56 PM 69.1 °F 55.0 °F 61% 29.84 in 10.0 mi South 23.0 mph 33.4 mph N/A   Overcast
1:56 PM 69.1 °F 55.0 °F 61% 29.82 in 10.0 mi South 15.0 mph 24.2 mph N/A   Overcast
2:56 PM 64.9 °F 57.0 °F 75% 29.82 in 7.0 mi SSW 16.1 mph 25.3 mph 0.00 in Rain Light Rain
3:56 PM 63.0 °F 60.1 °F 90% 29.81 in 7.0 mi South 11.5 mph - 0.03 in   Mostly Cloudy
4:56 PM 64.9 °F 61.0 °F 87% 29.79 in 10.0 mi South 12.7 mph - N/A   Scattered Clouds
5:56 PM 64.9 °F 60.1 °F 84% 29.81 in 10.0 mi South 13.8 mph - N/A   Mostly Cloudy
6:37 PM 64.4 °F 60.8 °F 88% 29.86 in 7.0 mi West 8.1 mph - 0.01 in Rain Rain
6:56 PM 63.0 °F 60.1 °F 90% 29.83 in 7.0 mi South 11.5 mph - 0.03 in Rain Light Rain
7:19 PM 62.6 °F 60.8 °F 94% 29.85 in 7.0 mi SW 9.2 mph - 0.00 in Rain , Thunderstorm Light Thunderstorms and Rain
7:56 PM 62.1 °F 59.0 °F 90% 29.88 in 7.0 mi West 9.2 mph 18.4 mph 0.01 in Thunderstorm Thunderstorm
8:05 PM 62.6 °F 57.2 °F 82% 29.89 in 10.0 mi WSW 6.9 mph - N/A   Overcast
8:56 PM 57.9 °F 44.1 °F 60% 29.93 in 10.0 mi NW 15.0 mph - N/A   Partly Cloudy
9:56 PM 57.0 °F 41.0 °F 55% 29.98 in 10.0 mi NNW 15.0 mph - N/A   Clear
10:56 PM 54.0 °F 37.9 °F 55% 30.03 in 10.0 mi NNW 12.7 mph 20.7 mph N/A   Clear
11:56 PM 52.0 °F 37.9 °F 59% 30.06 in 10.0 mi NW 5.8 mph - N/A   Clear